Weather History for Quantico, VA

Change the Weather History Date:

Monday, January 9, 2012

  Actual Average Record
Temperature  
Mean Temperature 36 °F -  
Max Temperature 39 °F 42 °F 66 °F (2006)
Min Temperature 34 °F 27 °F 19 °F (2004)
Degree Days  
Heating Degree Days 28    
Moisture  
Dew Point 29 °F    
Average Humidity 74    
Maximum Humidity 85    
Minimum Humidity 55    
Precipitation  
Precipitation 0.12 in - - ()
Sea Level Pressure  
Sea Level Pressure 30.22 in    
Wind  
Wind Speed 3 mph (NNE)    
Max Wind Speed 7 mph    
Max Gust Speed -    
Visibility 7 miles    
Events Rain , Snow    
Averages and records for this station are not official NWS values.
T = Trace of Precipitation, MM = Missing Value Source: NWS Daily Summary

Daily Weather History Graph

Daily Weather History Graph

Search for Another Location

Airport:

Trip Planner

Search our weather history database for the weather conditions in past years. The results will help you decide how hot, cold, wet, or windy it might be!

Date:

Astronomy

Jan. 09, 2012 Rise Set
Actual Time 7:26 AM EST 5:05 PM EST
Civil Twilight 6:57 AM EST 5:35 PM EST
Nautical Twilight 6:24 AM EST 6:08 PM EST
Astronomical Twilight 5:52 AM EST 6:40 PM EST
Moon 5:49 PM EST (1/9) 7:26 AM EST (1/9)
Length of Visible Light 10h 37m
Length of Day
9h 38m
Full, 100% of the Moon is Illuminated
Jan 9
Full
Jan 16
Last Quarter
Jan 23
New
Jan 30
First Quarter
Feb 7
Full

Hourly Weather History & Observations

Time (EST) Temp. Windchill Dew Point Humidity Pressure Visibility Wind Dir Wind Speed Gust Speed Precip Events Conditions
12:56 AM 39.9 °F 35.1 °F 26.1 °F 58% 30.34 in 10.0 mi NE 6.9 mph - N/A   Clear
1:56 AM 37.0 °F 33.3 °F 25.0 °F 62% 30.35 in 10.0 mi NE 4.6 mph - N/A   Clear
2:56 AM 35.1 °F 32.2 °F 25.0 °F 67% 30.36 in 10.0 mi NNE 3.5 mph - N/A   Clear
3:56 AM 37.9 °F 33.5 °F 23.0 °F 55% 30.34 in 10.0 mi NE 5.8 mph - N/A   Clear
4:56 AM 36.0 °F 32.1 °F 24.1 °F 62% 30.35 in 10.0 mi NNE 4.6 mph - N/A   Mostly Cloudy
5:56 AM 37.9 °F 33.5 °F 23.0 °F 55% 30.36 in 10.0 mi NNE 5.8 mph - N/A   Overcast
6:56 AM 36.0 °F - 25.0 °F 64% 30.36 in 10.0 mi Calm Calm - N/A   Overcast
7:56 AM 37.9 °F 33.5 °F 24.1 °F 57% 30.35 in 10.0 mi ENE 5.8 mph - N/A   Mostly Cloudy
8:56 AM 37.9 °F - 23.0 °F 55% 30.34 in 10.0 mi Calm Calm - N/A   Mostly Cloudy
9:56 AM 37.9 °F - 24.1 °F 57% 30.34 in 10.0 mi Calm Calm - N/A   Mostly Cloudy
11:56 AM 39.0 °F 35.7 °F 26.1 °F 60% 30.29 in 10.0 mi NE 4.6 mph - N/A   Overcast
12:56 PM 39.0 °F - 28.0 °F 65% 30.26 in 7.0 mi Calm Calm - 0.00 in   Unknown
1:11 PM 37.4 °F - 28.4 °F 70% 30.25 in 2.5 mi Calm Calm - 0.00 in Snow Light Snow
1:34 PM 35.6 °F - 30.2 °F 81% 30.23 in 1.2 mi Calm Calm - 0.01 in Snow Light Snow
1:41 PM 35.6 °F - 30.2 °F 81% 30.23 in 2.0 mi Calm Calm - 0.01 in Snow Light Snow
1:47 PM 37.4 °F 34.9 °F 30.2 °F 75% 30.22 in 3.0 mi East 3.5 mph - 0.01 in Snow Light Snow
1:56 PM 36.0 °F 33.3 °F 30.9 °F 82% 30.22 in 3.0 mi East 3.5 mph - 0.01 in Snow Light Snow
2:19 PM 37.4 °F - 30.2 °F 75% 30.21 in 7.0 mi Calm Calm - 0.00 in Snow Light Snow
2:56 PM 36.0 °F - 30.9 °F 82% 30.21 in 7.0 mi Calm Calm - 0.01 in Snow Light Snow
3:03 PM 35.6 °F - 30.2 °F 81% 30.19 in 3.0 mi Calm Calm - 0.00 in Snow Light Snow
3:11 PM 35.6 °F - 30.2 °F 81% 30.19 in 2.5 mi Calm Calm - 0.01 in Snow Light Snow
3:19 PM 35.6 °F - 30.2 °F 81% 30.18 in 3.0 mi Calm Calm - 0.01 in Snow Light Snow
3:56 PM 36.0 °F - 30.9 °F 82% 30.19 in 7.0 mi Calm Calm - 0.01 in   Overcast
4:22 PM 35.6 °F - 30.2 °F 81% 30.20 in 1.2 mi Calm Calm - 0.01 in Snow Light Snow
4:56 PM 34.0 °F - 30.0 °F 85% 30.19 in 0.8 mi Calm Calm - 0.05 in Snow Light Snow
5:56 PM 35.1 °F - 30.0 °F 82% 30.15 in 0.5 mi Calm Calm - 0.04 in Rain , Snow Snow
6:45 PM 35.6 °F - 30.2 °F 81% 30.14 in 7.0 mi Calm Calm - 0.00 in   Overcast
6:56 PM 35.1 °F - 30.0 °F 82% 30.14 in 7.0 mi Calm Calm - 0.00 in   Overcast
7:56 PM 35.1 °F 32.2 °F 30.9 °F 85% 30.14 in 6.0 mi NNW 3.5 mph - N/A   Overcast
8:56 PM 35.1 °F - 30.9 °F 85% 30.12 in 7.0 mi Calm Calm - N/A   Overcast
9:49 PM 35.6 °F - 30.2 °F 81% 30.11 in 10.0 mi Calm Calm - N/A   Overcast
9:56 PM 36.0 °F - 30.9 °F 82% 30.11 in 10.0 mi Calm Calm - N/A   Overcast
10:18 PM 35.6 °F - 30.2 °F 81% 30.10 in 10.0 mi Calm Calm - N/A   Overcast
10:56 PM 36.0 °F - 30.9 °F 82% 30.10 in 9.0 mi Calm Calm - N/A   Overcast
11:22 PM 35.6 °F 30.7 °F 30.2 °F 81% 30.08 in 10.0 mi WSW 5.8 mph - N/A   Overcast
11:37 PM 35.6 °F 32.8 °F 30.2 °F 81% 30.08 in 10.0 mi West 3.5 mph - N/A   Overcast
11:56 PM 35.1 °F 32.2 °F 30.9 °F 85% 30.07 in 8.0 mi WSW 3.5 mph - N/A   Overcast